Location: Clanezzo
(45.7500°N, 9.6000°E)
Time: 01:16:53
(UTC+00:00)

X-37B - Pass Details

Date: 12 May 2021
Orbit: 386 x 389 km, 45.0° (Epoch: 10 June)

Event Time Altitude Azimuth Distance (km) Brightness Sun altitude
Rises 20:36:22 0° 276° (W) 2,273 5.2 -16.2°
Reaches altitude 10° 20:38:52 10° 256° (WSW) 1,415 3.7 -16.5°
Enters shadow 20:41:04 18° 212° (SSW) 1,033 2.5 -16.7°
